This demonstration page uses our WeatherBlox Daily Observations layout. Learn more.

Left ArrowRight Arrow

Hourly Observations for December 23, 2019

Temp ( °F °C ) Dew Point ( °F °C ) Humidity (%) Winds ( mph kmh ) Pressure ( in mb ) Visibility ( mi km ) Precip ( " mm )
12:56 am 00:56 Clear 34 1 30 -1 87 87 ESE 5 7 30.04 1017 10 16 0.00 0.00
1:56 am 01:56 Clear 34 1 30 -1 87 87 ESE 5 7 30.03 1017 10 16 0.00 0.00
2:56 am 02:56 Clear 32 0 28 -2 87 87 E 5 7 30.04 1017 10 16 0.00 0.00
3:56 am 03:56 Clear 30 -1 28 -2 93 93 ESE 5 7 30.04 1017 10 16 0.00 0.00
4:56 am 04:56 Clear 30 -1 28 -2 93 93 ESE 3 6 30.04 1017 10 16 0.00 0.00
5:56 am 05:56 Clear with Mist and Fog 30 -1 30 -1 100 100 ESE 5 7 30.05 1018 6 10 0.00 0.00
6:56 am 06:56 Mostly Cloudy with Mist and Fog 28 -2 28 -2 100 100 Calm 30.07 1018 4 6 0.00 0.00
7:56 am 07:56 Partly Cloudy with Mist and Fog 30 -1 28 -2 93 93 Calm 30.06 1018 3 5 0.00 0.00
8:11 am 08:11 Mostly Cloudy with Mist and Fog N/A N/A N/A Calm N/A 1 2 0.00 0.00
8:19 am 08:19 Mostly Cloudy with Mist and Fog N/A N/A N/A ESE 3 6 N/A 1 2 0.00 0.00
8:34 am 08:34 Partly Cloudy with Mist and Fog N/A N/A N/A ESE 3 6 N/A 3 5 0.00 0.00
8:56 am 08:56 Partly Cloudy with Mist and Fog 30 -1 30 -1 100 100 Calm 30.07 1018 4 6 0.00 0.00
9:56 am 09:56 Sunny 34 1 32 0 93 93 SE 6 9 30.09 1019 10 16 0.00 0.00
10:56 am 10:56 Sunny 41 5 34 1 76 76 S 5 7 30.08 1019 10 16 0.00 0.00
11:56 am 11:56 Sunny 46 8 34 1 62 62 Calm N/A 10 16 0.00 0.00
12:56 pm 12:56 Sunny 46 8 34 1 62 62 SE 6 9 30.03 1017 10 16 0.00 0.00
1:56 pm 13:56 Sunny 48 9 36 2 62 62 ESE 7 11 29.99 1016 10 16 0.00 0.00
2:56 pm 14:56 Sunny 48 9 37 3 66 66 SE 7 11 29.98 1015 10 16 0.00 0.00
3:56 pm 15:56 Sunny 50 10 37 3 62 62 SE 8 13 29.97 1015 10 16 0.00 0.00
4:56 pm 16:56 Sunny 48 9 37 3 66 66 ESE 7 11 29.96 1015 10 16 0.00 0.00
5:56 pm 17:56 Clear 46 8 36 2 66 66 ESE 7 11 29.96 1014 10 16 0.00 0.00
6:56 pm 18:56 Clear 45 7 36 2 71 71 E 6 9 29.97 1015 10 16 0.00 0.00
7:56 pm 19:56 Clear 45 7 34 1 66 66 ESE 6 9 29.97 1015 10 16 0.00 0.00
8:56 pm 20:56 Clear N/A N/A N/A ESE 9 15 N/A 10 16 0.00 0.00
9:56 pm 21:56 Clear 43 6 34 1 71 71 E 6 9 29.96 1014 10 16 0.00 0.00
10:56 pm 22:56 Clear 43 6 36 2 76 76 ESE 7 11 29.93 1014 10 16 0.00 0.00
11:56 pm 23:56 Clear 41 5 36 2 81 81 ESE 7 11 29.93 1014 10 16 0.00 0.00

Powered by AerisWeather